DECAYED

SJ-19 DEB, 61506 (Decayed)

Orbit data source: Space-Track

SJ-19 DEB, 61506 was space debris in LEO originally from a launch on Fri, 27 Sep 2024 UTC via a CHANG ZHENG 2D launch vehicle from the Jiuquan Satellite Launch Center, China (JSC). Debris objects in space refer to the collection of defunct objects orbiting the Earth. Examples of debris include non-operational satellites, rocket bodies, and fragments generated from explosions, collisions, or faulty payload assembly.

Not visible in the next 10 days
SJ-19 DEB details
Identifier
61506, 2024-177D
Orbit
Decayed
Last TLE update1 month ago
Origin
Flag of CNCASC (CN / PRC)
ManufacturerCAST
MissionDecayed Civil Microgravity
Bus & MotorFSW-1, Unknown motor
Mass3,550 kg wet, ~2,000 kg dry
Launch date (UTC)
2024-09-27 (4 months ago)
Launch vehicle
CHANG ZHENG 2D
Launch site
Jiuquan Satellite Launch Center, China (JSC)
Object type
Payload
Rocket body
Debris
Shape & HBRCyl, 2.2 m
Radar Cross Section4.665 m², Large (>1 m²)

Expand to show TLE details & history

TLE from 1 month ago
0 SJ-19 DEB
1 61506U 24177D   25009.31512986  .06246859  83581-5  24147-3 0  9991
2 61506  41.5818 219.4562 0005321 297.9087 235.7666 16.43965099 14315
Epoch: 2025-01-09T07:33Z
Definitive object data (Epoch: 2025-01-09T07:33:47.219Z)
Latitude4.19499°
Longitude172.19966°
Altitude156.384 km
Speed7.814 km/s
True Right ascension02h 18m 58s
True Declination4° 10' 04"
Sunlit
Object was in full shadow at TLE epoch
Visualization observer readout
Observer readout values are unavailable because the object's trajectory could not be propagated. This is usually caused when the trajectory data is faulty or the object's orbit has decayed.
Visualization observer readout
Observer readout values are unavailable because the object's trajectory could not be propagated. This is usually caused when the trajectory data is faulty or the object's orbit has decayed.
Orbital elements
Apogee altitude161.045 km
Perigee altitude154.09 km
Semi-major axis6,535.705 km
Eccentricity0.0005321
Inclination41.5818°
RAAN219.4562°
Arg. of periapsis297.9087°
True anomaly235.71621°
Mean anomaly235.7666°
Eccentric anomaly235.7414°
Mean motion4.10776 °/min
BSTAR0.00024147
Orbital period87.64 mins
Loading maneuver chart data...
Loading historical data...
Loading historical data...
Loading historical data...
Loading historical data...
Loading historical data...
Loading historical data...
Loading historical data...

SJ-19 DEB Visibility forecast

Observer location: undefined°, undefined

This satellite is decayed
Span
Click to sort rows by Start time (UTC) header in descending order
Start Az.
Max El. time (UTC)
Max El. Az.
Max El.
End time (UTC)
End Az.
|